Volver al catálogo

ICEYE-X47

ActivoCienciaVLEO
NORAD 62389·PAYLOAD·🇫🇮 Finland

Lanzado Dec 21, 2024 desde Vandenberg Space Force Base

Loading…

Próximos Pases (próximas 24 horas)

TLE

ActualizadoSource: Space-Track

Época: Sep 14, 2026, 09:01 UTC

1 62389U 24247N   26257.37598589  .00001915  00000-0  11807-3 0  9999
2 62389  44.9964 240.4134 0001630   0.7527 359.3353 15.13880360 95690

Sigue ICEYE-X47 en tiempo real con AllMySat

Download on the App Store